Regional Weather Roundup
Issued by NWS Charleston, SC

Current Version | Previous Version | Graphics & Text | Print | Product List | Glossary On
Versions: 1 2 3 4 5 6 7 8 9 10 11 12 13 14 15 16 17 18 19 20 21 22 23 24 25 26 27 28 29 30 31 32 33 34 35 36 37 38 39 40 41 42 43 44 45 46 47 48 49 50
000
ASUS42 KCHS 221813
RWRCHS

REGIONAL WEATHER ROUNDUP
NATIONAL WEATHER SERVICE CHARLESTON SC
200 PM EDT FRI JUL 22 2016

NOTE: "FAIR" INDICATES FEW OR NO CLOUDS BELOW 12,000 FEET WITH NO
SIGNIFICANT WEATHER AND/OR OBSTRUCTIONS TO VISIBILITY.

NOT ALL STATIONS ARE QUALITY CONTROLLED. USE DATA WITH CAUTION...
ESPECIALLY DEWPOINT OBSERVATIONS.

SCZ027-030-031-034>040-042>050-221900-
...SOUTHEAST SOUTH CAROLINA...

CITY           SKY/WX    TMP DP  RH WIND       PRES   REMARKS
N CHARLESTON   CLOUDY    90  75  61 S9        30.10F HX 100
6HR MIN TEMP:  79; 6HR MAX TEMP:  92;

WATERFRONT PRK   N/A     86  77  74 SE7       30.10S HX  97
MOUNT PLEASANT FAIR      88  75  66 SE6       30.11F HX  97
JOHNS ISLAND   FAIR      88  77  70 SE6G13    30.11F HX 100
PINOPOLIS        N/A     88  75  66 CALM      30.03  HX  97
MONCKS CORNER  MOCLDY    88  70  55 SW5       30.10F HX  92
SUMMERVILLE    FAIR      90  73  58 CALM      30.11F HX  98
BEAUFORT MCAS  CLOUDY    93  73  52 VRB3      30.10F HX 102
6HR MIN TEMP:  79; 6HR MAX TEMP:  93;

BEAUFORT ARPT  NOT AVBL
HILTON HEAD IS MOSUNNY   90  77  66 S8        30.12S HX 102
WALTERBORO     MOCLDY    91  72  52 S7        30.11F HX  98
ALLENDALE      FAIR      91  72  52 SW7       30.10F HX  98

...SOUTHERN MIDLANDS AND PEE DEE...

CITY           SKY/WX    TMP DP  RH WIND       PRES   REMARKS
GEORGETOWN     FAIR      88  72  58 CALM      30.11F HX  94
KINGSTREE      FAIR      90  72  55 SE5       30.10F HX  96
ORANGEBURG     MOSUNNY   89  72  56 SW9       30.11S HX  96
6HR MIN TEMP:  74; 6HR MAX TEMP:  90;

BARNWELL       NOT AVBL
AIKEN          FAIR      90  68  48 CALM      30.14F HX  93
MANNING        FAIR      88  70  55 SW6       30.10F HX  92
COLUMBIA       PTSUNNY   93  70  46 SW5       30.08F HX  99
6HR MIN TEMP:  76; 6HR MAX TEMP:  94;

SUMTER         MOSUNNY   91  71  50 S8        30.07F HAZE    HX  97
6HR MIN TEMP:  74; 6HR MAX TEMP:  91;

FLORENCE       MOSUNNY   91  73  55 SW9       30.09F HX  99
6HR MIN TEMP:  75; 6HR MAX TEMP:  91;

MYRTLE BEACH   MOSUNNY   88  70  55 S13       30.12F HX  92
N MYRTLE BEACH MOSUNNY   87  71  58 S14       30.11S HX  93
6HR MIN TEMP:  76; 6HR MAX TEMP:  87;


$$

GAZ063-065-086>088-099>101-113>116-118-119-134>141-150-221900-
...SOUTHEAST GEORGIA...

CITY           SKY/WX    TMP DP  RH WIND       PRES   REMARKS
SAVANNAH ARPT  PTSUNNY   93  71  48 S9        30.10F HX 100
6HR MIN TEMP:  79; 6HR MAX TEMP:  93;

HUNTER AAF     CLOUDY    91  79  69 S5        30.08F HX 107
6HR MIN TEMP:  78; 6HR MAX TEMP:  91;

FORT STEWART   MOSUNNY   92  67  42 VRB1      30.06F HX  95
6HR MIN TEMP:  76; 6HR MAX TEMP:  93;

STATESBORO     SUNNY     92  77  60 CALM      30.10F HX 105
SYLVANIA       NOT AVBL
CLAXTON        FAIR      93  74  54 CALM      30.09F HX 103

...CSRA...CENTRAL AND FAR SOUTHEAST GEORGIA...

CITY           SKY/WX    TMP DP  RH WIND       PRES   REMARKS
THOMSON        MOSUNNY   92  74  55 W3        30.16S HX 101
AUGUSTA-BUSH   MOSUNNY   93  70  46 VRB3      30.09F HX  99
6HR MIN TEMP:  74; 6HR MAX TEMP:  93;

AUGUSTA-DANIEL SUNNY     91  71  51 VRB5      30.11F HX  97
SWAINSBORO     FAIR      90  72  55 S5        30.11F HX  96
VIDALIA        PTSUNNY   91  68  46 CALM      30.10F HX  95
EASTMAN        FAIR      91  58  32 W3        30.13F HX  90
HAZLEHURST     FAIR      93  72  49 CALM      30.08F HX 101
ALMA           MOSUNNY   92  70  48 E6        30.09F HX  97
6HR MIN TEMP:  76; 6HR MAX TEMP:  94;

WAYCROSS       CLOUDY    96  75  50 N6        30.09F HX 108
JESUP          FAIR      93  73  52 SW5       30.09F HX 102
BAXLEY         FAIR      91  73  55 CALM      30.09F HX 100
BRUNSWICK      MOSUNNY   93  73  52 S7        30.10F HX 102
SAINT SIMONS   NOT AVBL

$$

SCZ027-028-034-036>038-045-046-048>050-GAZ119-141-221900-
...LAKE AND SUPPLEMENTAL COASTAL OBSERVATIONS...

STATION/POSITION TIME  TEMP    WIND        PRES    WAVE   SWELL
                       AIR SEA DIR/SP/G            HT/PER HT/PER/DIR
                 (UTC) (F)     (DEG/KT/KT) (MB)    (FT/S) (FT/S/D)
WINYAH BAY       NOT AVBL
LAKE MURRAY      1700   87     210/  3/  6 1018.6S
ACE BASIN NERRS  NOT AVBL
FORT PULASKI     1700   86 87  200/  5/  7 1020.3F
SAPELO ISLAND    1700   92     180/  5     1020.0S

$$

ANZ835-935-AMZ111-154-330-350-352-354-370-450-454-472-221900-
...C-MAN AND BUOY OBSERVATIONS...

STATION/POSITION TIME  TEMP    WIND        PRES    WAVE   SWELL
                       AIR SEA DIR/SP/G            HT/PER HT/PER/DIR
                 (UTC) (F)     (DEG/KT/KT) (MB)    (FT/S) (FT/S/D)
BUOY 41004       1750   85 89  120/  2/  4 1019.6F   3/ 9   3/130/ 9
BUOY 41008       1750   85 88   CALM  /  2 1019.5F   2/10   2/ 90/10
FOLLY BEACH CMAN 1800   85     170/  7/  8 1019.9F
CAPERS NEARSHORE 1708   84 85  180/  6/  8 1020.1R
FRIPP NEARSHORE  1708   84 87  170/  4/  6 1019.4F


STATION/POSITION TIME  TEMP    WIND        PRES    WAVE   SWELL
                       AIR SEA DIR/SP/G            HT/PER HT/PER/DIR
                 (UTC) (F)     (DEG/KT/KT) (MB)    (FT/S) (FT/S/D)
5E ST. MARYS GA  1701      89                N/A     2/11   2/110/11
FRYING PAN BUOY  1700   83 86  100/  2/  6 1019.6R
BUOY 41025       1750   83 86  170/  4/  8 1019.3S   3/ 9   3/110/ 9
CAPE LOOKOUT NC  1800   84     170/  5/  6 1019.1R
BUOY 41002       1750   83 87  340/  2/  2 1019.4F   3/ 8   3/120/ 8
BUOY 41010       1720   81 87  280/  4/  6 1019.7R
ST AUGUSTINE FL  1800   84 88   60/  7/  8 1020.3F


$$




USA.gov is the U.S. government's official web portal to all federal, state and local government web resources and services.